Regional Weather Roundup
Issued by NWS

Home | Current Version | Previous Version | Graphics & Text | Print | Product List | Glossary Off
Versions: 1 2 3 4 5 6 7 8 9 10 11 12 13 14 15 16 17 18 19 20 21 22 23 24 25 26 27 28 29 30 31 32 33 34 35 36 37 38 39 40 41 42 43 44 45 46 47 48 49 50

000
ASUS43 KLSX 041710
RWRMO

WEATHER SUMMARY FOR MISSOURI
NATIONAL WEATHER SERVICE SPRINGFIELD MO
1200 PM CDT TUE AUG 04 2015

NOTE: "FAIR" INDICATES FEW OR NO CLOUDS BELOW 12,000 FEET WITH NO
       SIGNIFICANT WEATHER AND/OR OBSTRUCTIONS TO VISIBILITY.
       CURRENT SKY AND/OR WEATHER CONDITIONS ARE NOT AVAILABLE FOR
       CHILLICOTHE AND FARMINGTON.

MOZ001>031-035>038-043-044-053-054-041800-
...NORTHERN AND WESTERN MISSOURI...

CITY           SKY/WX    TMP DP  RH WIND       PRES   REMARKS
KANSAS CTY INT CLOUDY    82  73  74 NE16      30.01R
KANSAS C DTWN  CLOUDY    87  70  56 N6        29.99R HX  92
LEE`S SUMMIT   PTSUNNY   87  68  52 CALM      30.01R HX  90
ST JOSEPH      PTSUNNY   77  68  73 E10       30.02S
CHILLICOTHE      N/A     74  67  78 E6        30.05F
KIRKSVILLE     TSTM      67  65  93 W3        30.11R

$$
MOZ066>068-077>081-088>096-101>105-041800-
...SOUTHWEST MISSOURI...

CITY           SKY/WX    TMP DP  RH WIND       PRES   REMARKS
SPRINGFIELD    PTSUNNY   87  68  52 S10       30.00S HX  90
JOPLIN         CLOUDY    84  68  58 SW14      30.01S

$$
MOZ032>034-039>042-045>050-055>058-069>072-041800-
...CENTRAL MISSOURI...

CITY           SKY/WX    TMP DP  RH WIND       PRES   REMARKS
COLUMBIA       PTSUNNY   86  71  60 CALM      30.01R HX  91
JEFFERSON CITY PTSUNNY   84  71  65 CALM      29.99S
ROLLA          PTSUNNY   88  71  57 SW7       30.00S HX  94
SEDALIA        MOSUNNY   88  70  55 CALM      30.01S HX  93
WHITEMAN AFB   PTSUNNY   88  67  51 VRB5      29.99R HX  91
WARRENSBURG      N/A    N/A N/A N/A CALM      30.00R
OSAGE BEACH    PTSUNNY   86  70  58 SW3       30.00S HX  90

$$
MOZ051-052-059>065-041800-
...EAST CENTRAL MISSOURI...

CITY           SKY/WX    TMP DP  RH WIND       PRES   REMARKS
ST LOUIS INTL  PTSUNNY   87  67  51 VRB3      29.99S HX  90
SPIRIT OF STL  PTSUNNY   85  71  63 CALM      29.98R HX  90
ST CHARLES     MOSUNNY   84  68  58 VRB3      29.99R

$$
MOZ072>076-082>087-097>100-106>115-041800-
...SOUTH CENTRAL AND SOUTHEAST MISSOURI...

CITY           SKY/WX    TMP DP  RH WIND       PRES   REMARKS
CAPE GIRARDEAU MOSUNNY   89  74  60 W6        29.98S HX  98
FARMINGTON     MOSUNNY   88  70  55 W6        30.05R HX  92
POPLAR BLUFF   MOSUNNY   89  73  59 SW7       29.97F HX  97
WEST PLAINS    PTSUNNY   88  67  49 SW8       30.04S HX  91

$$


USA.gov is the U.S. government's official web portal to all federal, state and local government web resources and services.